Weather History for Piney Island, NC

Change the Weather History Date:

Wednesday, November 21, 2012

  Actual Average (KMRH) Record (KMRH)
Temperature  
Mean Temperature 55 °F -  
Max Temperature 59 °F 65 °F 79 °F (1985)
Min Temperature 51 °F 44 °F 26 °F (1968)
Degree Days  
Heating Degree Days 10    
Growing Degree Days 5 (Base 50)    
Moisture  
Dew Point 48 °F    
Average Humidity 80    
Maximum Humidity 88    
Minimum Humidity 67    
Precipitation  
Precipitation 0.00 in - - ()
Sea Level Pressure  
Sea Level Pressure 30.07 in    
Wind  
Wind Speed 14 mph (North)    
Max Wind Speed 20 mph    
Max Gust Speed 30 mph    
Visibility 10 miles    
Events      
Averages and records for this station are not official NWS values.
T = Trace of Precipitation, MM = Missing Value Source: NWS Daily Summary

Daily Weather History Graph

Daily Weather History Graph

Search for Another Location

Airport:

Trip Planner

Search our weather history database for the weather conditions in past years. The results will help you decide how hot, cold, wet, or windy it might be!

Date:

Astronomy

Nov. 21, 2012 Rise Set
Actual Time 6:46 AM EST 4:56 PM EST
Civil Twilight 6:19 AM EST 5:24 PM EST
Nautical Twilight 5:48 AM EST 5:54 PM EST
Astronomical Twilight 5:18 AM EST 6:25 PM EST
Moon 12:59 PM EST (11/21) 12:17 AM EST (11/21)
Length of Visible Light 11h 04m
Length of Day
10h 10m
First Quarter, 61% of the Moon is Illuminated
Nov 21
First Quarter
Nov 28
Full
Dec 6
Last Quarter
Dec 13
New
Dec 20
First Quarter

Hourly Weather History & Observations

Time (EST) Temp. Dew Point Humidity Pressure Visibility Wind Dir Wind Speed Gust Speed Precip Events Conditions
12:56 AM 53.1 °F 48.0 °F 83% 30.05 in 10.0 mi North 11.5 mph - N/A   Mostly Cloudy
1:44 AM 53.6 °F 48.2 °F 82% 30.03 in 10.0 mi North 11.5 mph - N/A   Overcast
1:56 AM 53.1 °F 48.0 °F 83% 30.04 in 10.0 mi North 12.7 mph - N/A   Overcast
2:56 AM 53.1 °F 48.0 °F 83% 30.03 in 10.0 mi North 12.7 mph - N/A   Overcast
3:56 AM 52.0 °F 48.0 °F 86% 30.04 in 10.0 mi North 10.4 mph - N/A   Overcast
4:56 AM 52.0 °F 48.0 °F 86% 30.05 in 10.0 mi NNW 13.8 mph - N/A   Overcast
5:27 AM 51.8 °F 46.4 °F 82% 30.04 in 10.0 mi North 15.0 mph - N/A   Overcast
5:52 AM 51.8 °F 46.4 °F 82% 30.05 in 10.0 mi North 12.7 mph - N/A   Overcast
5:56 AM 52.0 °F 48.0 °F 86% 30.06 in 10.0 mi North 13.8 mph - N/A   Overcast
6:34 AM 51.8 °F 48.2 °F 88% 30.06 in 10.0 mi North 15.0 mph - N/A   Overcast
6:56 AM 52.0 °F 48.0 °F 86% 30.07 in 10.0 mi North 13.8 mph - N/A   Overcast
7:56 AM 53.1 °F 48.9 °F 86% 30.08 in 9.0 mi North 12.7 mph 20.7 mph N/A   Overcast
8:56 AM 54.0 °F 50.0 °F 86% 30.09 in 10.0 mi North 15.0 mph - N/A   Overcast
9:56 AM 54.0 °F 50.0 °F 86% 30.09 in 10.0 mi North 13.8 mph 21.9 mph N/A   Overcast
10:56 AM 54.0 °F 48.9 °F 83% 30.08 in 10.0 mi North 17.3 mph - N/A   Overcast
11:56 AM 55.0 °F 48.9 °F 80% 30.07 in 10.0 mi North 17.3 mph 24.2 mph N/A   Mostly Cloudy
12:09 PM 55.4 °F 48.2 °F 77% 30.06 in 10.0 mi North 16.1 mph 24.2 mph N/A   Scattered Clouds
12:56 PM 55.9 °F 48.9 °F 77% 30.07 in 10.0 mi North 19.6 mph 25.3 mph N/A   Clear
1:56 PM 55.9 °F 48.0 °F 75% 30.06 in 10.0 mi North 15.0 mph 25.3 mph N/A   Clear
2:56 PM 59.0 °F 48.0 °F 67% 30.06 in 10.0 mi North 15.0 mph - N/A   Clear
3:56 PM 57.9 °F 48.0 °F 70% 30.07 in 10.0 mi North 13.8 mph 21.9 mph N/A   Clear
4:56 PM 55.9 °F 48.0 °F 75% 30.08 in 10.0 mi North 13.8 mph 20.7 mph N/A   Scattered Clouds
5:56 PM 55.0 °F 46.9 °F 74% 30.09 in 10.0 mi North 18.4 mph 23.0 mph N/A   Clear
6:56 PM 54.0 °F 46.9 °F 77% 30.10 in 10.0 mi North 18.4 mph 26.5 mph N/A   Clear
7:56 PM 53.1 °F 46.9 °F 80% 30.12 in 10.0 mi North 16.1 mph 29.9 mph N/A   Clear
8:56 PM 53.1 °F 46.9 °F 80% 30.12 in 10.0 mi North 13.8 mph 23.0 mph N/A   Clear
9:56 PM 52.0 °F 46.0 °F 80% 30.12 in 10.0 mi North 18.4 mph 24.2 mph N/A   Clear
10:56 PM 52.0 °F 44.1 °F 74% 30.10 in 10.0 mi North 19.6 mph 25.3 mph N/A   Clear
11:56 PM 51.1 °F 44.1 °F 77% 30.10 in 10.0 mi North 13.8 mph 26.5 mph N/A   Clear